Helicity
176 150 106 111 151 194 175 132 97 69 77 52 79 142 150 128 59 12 45 86 185 135 107 96 97 113 115 121 100 87 78 68 59 62 75 89 98 102 92 85 84 78 72 64 57 55 60 63 62
136 160 183 150 184 218 183 135 76 55 65 40 140 217 179 125 112 71 103 80 186 165 149 147 130 119 104 98 86 85 70 60 62 71 84 92 93 89 89 79 63 56 57 60 60 54 48 43 44
92 147 199 220 206 191 155 94 60 86 21 73 128 164 163 114 149 139 92 170 220 218 189 147 135 96 80 75 83 74 63 62 68 75 86 84 84 79 74 71 60 56 54 49 49 49 40 37 37
102 168 226 284 272 231 208 138 128 120 70 44 100 151 134 138 183 174 192 223 236 221 210 144 117 82 73 73 72 67 64 65 67 71 78 81 73 71 65 65 56 54 50 43 37 38 38 37 35
139 186 231 242 259 301 176 101 46 52 55 80 115 137 182 183 200 257 262 253 259 204 209 151 102 69 63 70 69 64 65 64 60 59 74 70 64 63 63 57 52 51 46 40 38 33 34 37 41
182 201 258 215 231 234 210 147 56 47 34 52 126 110 174 197 218 268 285 263 224 197 183 144 92 67 58 65 67 64 62 60 58 62 73 67 62 62 58 54 52 47 39 31 34 35 38 43 46
201 253 249 222 188 203 215 218 90 84 116 73 29 150 167 213 210 268 301 296 236 178 170 148 100 70 69 71 74 70 68 64 68 72 78 74 65 64 51 53 53 50 52 47 43 44 53 57 57
178 239 231 235 247 173 189 168 124 108 100 135 179 79 125 148 236 313 328 303 260 197 161 139 115 106 103 87 86 78 74 75 75 81 92 93 85 71 68 53 59 57 58 60 52 45 46 48 49
148 233 227 233 229 271 193 156 121 169 127 204 189 151 159 169 264 356 339 323 285 219 176 151 140 140 139 128 103 92 86 92 94 91 91 81 62 64 79 76 64 59 60 58 52 49 46 38 33
206 244 219 190 177 169 168 182 123 50 203 178 175 218 70 171 252 306 321 325 258 228 181 149 145 140 150 132 117 102 89 80 70 68 68 68 64 58 62 67 66 61 56 53 57 62 52 37 23
189 221 174 166 128 152 156 209 208 117 109 218 219 223 162 177 265 294 291 260 221 167 156 137 138 137 142 124 108 93 76 68 62 57 61 65 64 66 63 63 47 36 53 32 39 46 39 35 32
214 136 135 141 108 152 160 150 189 145 134 225 158 180 157 150 214 259 308 277 197 157 122 133 132 137 128 125 96 76 69 62 66 52 56 63 75 83 71 68 50 48 31 41 36 33 33 39 41
191 132 127 83 83 137 161 150 160 131 105 203 413 -15 119 102 187 226 254 263 181 166 117 119 128 138 132 129 104 76 55 52 51 57 54 60 74 77 70 62 55 51 44 38 40 39 29 38 39
147 110 94 128 114 135 156 147 166 145 153 133 209 146 113 118 175 252 210 274 207 181 119 124 120 140 139 121 94 79 77 75 82 79 61 77 71 68 76 72 70 63 43 39 41 41 33 29 34
130 114 124 107 122 163 136 128 203 106 172 202 202 227 105 120 173 189 199 260 220 167 144 120 125 146 139 119 116 104 108 104 101 93 78 96 80 82 81 74 76 60 53 53 53 58 44 48 30
175 191 141 103 148 146 169 94 76 47 152 163 198 235 245 76 93 143 174 261 211 206 148 121 125 135 152 144 136 125 113 119 113 108 95 105 99 92 100 90 80 63 66 56 62 62 65 47 42
208 190 154 119 125 178 187 121 18 18 116 140 161 210 349 95 91 113 144 211 214 193 181 157 154 148 159 172 169 146 115 130 118 119 119 115 110 104 115 98 81 68 67 68 48 57 51 72 44
266 240 184 192 113 172 190 112 33 50 67 104 159 201 333 337 101 103 128 164 196 193 200 192 172 181 194 219 251 223 166 165 137 133 130 125 117 120 125 110 92 75 84 83 56 43 51 64 51
185 155 176 120 87 97 116 129 -8 68 64 92 116 126 131 259 96 110 152 172 196 206 221 212 216 211 249 252 272 235 189 173 173 159 140 141 131 127 130 118 107 97 97 74 52 23 54 83 60
119 113 134 73 64 99 105 73 39 44 85 80 110 105 158 210 260 122 150 194 193 197 197 228 217 236 231 248 249 235 206 189 177 176 186 158 144 138 135 115 104 93 89 88 73 42 3 3 28
155 145 171 180 152 164 96 63 -3 67 77 87 93 113 118 179 348 238 166 220 214 199 210 240 256 253 252 292 350 357 313 294 253 234 222 185 165 156 149 132 118 114 83 64 50 43 22 2 4
122 106 81 79 79 25 37 131 -2 56 78 103 102 102 105 204 200 268 180 205 231 252 222 251 294 296 306 321 322 284 281 248 209 208 211 218 195 187 164 143 128 110 76 62 40 31 15 5 17
119 83 109 102 97 102 48 90 -66 122 70 105 58 159 141 183 271 243 232 195 242 257 340 314 315 324 341 326 321 319 275 254 259 256 257 247 233 204 177 152 132 109 79 59 51 42 38 15 11
134 99 116 121 135 149 93 149 -157 24 127 89 63 106 158 162 207 220 239 206 264 271 345 401 381 360 354 355 323 321 299 286 291 271 267 255 245 222 193 167 142 111 87 70 57 48 51 38 39
150 199 206 199 241 183 114 151 85 40 43 110 94 121 146 248 215 178 113 236 121 381 405 388 378 384 362 350 334 301 282 275 264 252 262 268 258 223 184 162 136 110 88 78 67 64 61 56 55
168 131 267 217 199 114 163 122 99 25 -11 28 113 90 132 173 330 325 96 211 286 388 371 392 405 391 373 358 328 295 282 282 276 275 244 235 218 198 179 171 142 118 102 91 82 68 68 74 73
179 148 90 165 127 96 101 154 69 52 42 20 54 92 103 156 224 312 425 263 282 358 392 363 407 386 370 346 372 304 303 281 280 288 277 241 232 220 189 165 145 125 112 101 89 81 85 87 89
151 194 176 155 139 75 58 70 77 -10 64 42 54 57 101 154 197 303 344 344 301 305 367 362 377 387 376 375 349 319 296 282 279 292 279 275 258 237 201 175 146 127 117 103 97 89 86 94 103
115 72 129 171 167 161 155 129 12 -15 -1 -25 -7 5 131 165 225 323 380 402 253 183 335 385 375 374 385 377 354 353 329 307 300 315 309 290 264 226 196 161 141 127 115 105 101 95 95 104 112
165 127 84 163 182 144 129 2 79 -26 93 120 103 3 69 101 239 325 400 251 162 277 340 457 510 454 432 404 364 354 346 327 346 353 331 301 274 227 185 160 143 126 114 105 103 101 104 112 116
Wind_Speed
54 54 46 42 48 48 54 42 45 38 40 41 34 33 23 29 22 35 20 12 24 21 16 14 17 14 13 14 17 18 21 23 26 30 32 34 37 40 43 45 47 48 51 52 54 55 54 55 54
45 45 42 43 55 69 65 51 50 48 47 38 35 37 32 36 30 25 11 17 23 20 15 14 12 11 13 16 18 19 21 24 26 28 32 35 38 40 42 44 46 49 50 52 54 54 54 54 53
32 33 42 53 67 68 64 55 54 48 45 43 41 36 37 35 29 5 10 17 16 16 15 15 13 13 13 16 18 19 21 23 25 28 31 34 37 39 41 43 46 48 50 51 52 53 54 53 53
28 30 38 66 76 69 65 54 54 52 45 44 43 48 41 35 12 18 7 10 15 13 14 14 13 13 14 15 17 18 20 22 25 28 30 33 35 38 40 43 45 47 49 50 51 52 53 53 53
28 29 44 61 82 72 58 62 65 61 53 51 45 53 48 29 22 5 6 7 12 9 11 12 13 11 12 14 16 17 19 21 24 26 29 31 34 37 39 42 44 45 47 49 50 51 52 52 52
31 34 51 60 73 68 70 67 66 66 59 52 51 48 46 29 13 12 8 7 7 11 8 12 12 11 11 12 14 16 18 20 22 25 28 30 33 36 38 40 41 44 46 48 49 50 52 52 53
34 40 55 63 69 70 66 65 70 70 65 59 46 53 49 32 18 15 13 10 8 5 10 8 9 10 11 10 13 15 16 18 21 24 27 30 32 34 35 38 41 44 45 47 48 50 51 52 53
32 39 57 54 61 72 55 63 64 68 67 51 46 58 57 42 22 17 16 13 11 10 5 10 9 7 7 9 11 12 14 16 19 23 25 27 29 31 32 35 39 42 44 46 48 50 51 52 53
30 44 58 59 57 60 47 61 64 65 65 59 50 55 53 31 27 24 22 20 17 15 9 8 9 8 7 7 8 10 13 16 19 22 25 26 27 28 30 33 37 41 43 45 47 49 51 52 54
32 46 48 49 54 60 53 56 63 71 72 66 57 56 42 35 36 33 29 27 23 19 15 10 9 9 8 4 7 7 9 13 15 20 23 24 24 26 29 32 36 39 42 44 47 49 50 51 52
40 48 46 46 52 55 52 59 62 77 80 68 67 65 56 45 44 38 33 31 28 23 19 14 10 10 9 7 8 7 9 11 13 18 21 22 22 24 28 31 34 38 41 43 45 47 49 50 52
47 47 46 52 50 52 59 56 65 77 89 73 69 70 65 57 52 47 38 35 32 26 22 16 12 11 9 9 9 9 9 10 13 16 19 20 22 24 27 29 32 36 39 43 44 47 49 50 52
44 49 51 48 49 52 56 58 74 80 79 76 74 64 67 63 57 55 46 38 36 31 25 20 16 14 12 11 8 5 6 8 10 15 17 19 21 24 26 28 31 34 38 41 44 46 49 51 51
44 44 49 53 50 51 59 64 57 75 72 79 81 76 69 70 62 57 51 43 40 34 28 23 20 17 15 12 9 6 5 7 10 12 15 18 21 23 25 26 29 33 36 40 43 46 47 50 49
49 63 60 52 52 52 44 60 70 76 71 79 79 84 70 74 66 65 56 48 43 39 31 28 24 20 18 14 9 6 9 9 9 10 12 17 19 20 22 25 27 31 35 38 41 45 47 48 48
49 53 63 55 50 48 41 79 62 78 78 86 88 74 81 78 75 70 64 54 48 41 35 31 29 24 20 17 12 9 7 8 8 8 10 13 15 18 19 22 26 29 33 37 41 44 47 49 49
50 59 59 62 48 48 43 68 50 71 79 83 84 86 85 79 75 77 69 60 53 45 39 36 32 28 24 19 16 11 7 7 6 6 8 10 12 14 17 20 23 28 32 37 40 45 47 51 49
57 56 56 56 52 48 51 57 49 63 79 90 86 84 84 96 84 82 72 65 57 50 43 38 36 31 26 22 18 14 9 6 5 6 8 9 9 11 14 18 22 27 32 37 40 43 48 52 51
57 55 58 62 56 54 48 55 43 73 79 86 94 98 94 86 80 81 73 67 62 57 50 43 39 35 30 27 24 19 15 10 7 5 6 6 7 9 12 16 21 26 32 37 39 40 48 54 55
57 60 66 78 67 62 60 57 49 86 93 78 85 103 94 91 90 77 79 73 70 62 56 49 43 38 34 31 27 23 17 14 9 6 3 3 3 6 10 14 20 26 31 36 41 43 44 48 57
59 59 60 65 60 66 71 72 43 85 88 75 81 90 100 92 98 89 81 77 72 70 60 53 47 41 37 34 28 22 18 14 17 12 8 5 1 5 9 14 19 26 30 35 39 43 45 49 52
65 64 72 76 71 76 45 81 41 88 95 75 86 91 95 103 100 105 86 82 76 72 64 59 51 44 40 37 33 30 25 23 22 15 11 6 3 4 8 13 19 25 29 34 38 42 45 47 53
72 63 65 70 76 75 64 70 47 71 89 67 64 84 95 98 103 103 89 78 77 71 64 59 56 51 44 42 38 32 27 26 20 16 13 9 7 6 9 13 19 24 29 33 37 41 45 48 50
59 63 61 67 70 87 64 59 71 49 94 78 60 88 83 92 100 90 91 75 73 74 69 61 58 55 51 47 43 36 30 26 23 21 17 13 9 8 10 14 19 24 29 34 38 41 45 48 51
61 59 70 73 72 85 48 57 65 60 92 85 71 91 87 79 83 86 83 90 66 74 70 66 60 58 53 51 45 42 33 28 26 24 20 16 14 13 12 15 20 25 30 34 38 43 47 50 53
60 62 63 70 70 81 61 47 55 66 113 70 78 85 84 85 84 79 82 79 74 69 70 71 64 59 55 52 48 45 37 31 29 25 22 21 16 13 13 16 22 26 31 35 40 44 48 51 54
57 68 59 72 61 69 59 69 74 83 82 83 103 89 85 79 78 79 74 81 73 64 61 57 68 62 59 54 51 48 42 33 31 28 24 19 16 15 15 18 24 29 33 38 42 47 51 53 56
59 48 59 63 75 88 72 66 21 62 86 94 93 95 92 84 80 77 74 76 70 65 53 52 59 59 59 55 53 49 45 36 31 26 23 18 17 16 17 22 26 31 36 40 44 49 52 57 60
58 68 54 53 65 68 68 55 41 62 65 72 75 88 93 86 80 71 70 74 74 62 57 53 53 57 55 54 50 48 43 36 30 26 22 19 17 16 19 23 28 34 38 43 47 52 55 60 64
54 61 63 66 56 69 77 70 37 38 40 47 56 69 78 92 91 77 66 75 71 62 56 56 53 48 45 42 45 47 37 33 28 23 19 17 16 17 20 25 30 36 41 45 50 55 59 63 68
Wind_Direction
290 288 293 294 284 282 274 278 280 291 289 286 285 274 269 283 303 304 325 19 109 111 114 109 100 79 48 30 32 21 24 26 30 31 32 31 33 35 37 37 37 38 40 39 39 41 39 36 35
293 288 286 284 272 268 270 272 274 280 285 295 283 272 269 272 294 313 342 83 106 111 115 114 98 71 58 48 39 36 34 36 34 35 36 36 37 38 37 36 37 41 41 40 41 40 38 35 31
306 296 278 272 268 259 268 271 274 281 284 284 277 271 270 276 286 318 322 100 102 111 119 114 97 82 64 54 48 46 43 40 40 38 36 37 39 38 37 37 38 40 41 42 42 39 38 35 31
313 301 288 268 263 266 264 267 271 279 281 279 276 261 274 282 272 281 111 109 107 109 119 115 103 88 73 61 57 54 48 46 44 41 39 39 39 39 37 37 38 39 39 41 41 38 37 35 36
323 307 281 275 267 267 266 266 265 271 278 274 271 264 265 275 274 214 168 145 121 118 120 118 111 95 79 69 64 59 56 51 45 42 40 39 39 38 38 36 36 36 37 39 38 36 35 37 36
311 304 285 272 273 271 265 266 266 265 272 274 269 263 264 269 244 221 196 183 144 122 127 120 114 103 87 78 71 67 62 54 45 43 42 40 40 38 37 33 33 36 37 38 38 38 37 39 37
307 297 286 283 279 272 266 268 260 261 264 269 270 259 263 252 241 221 215 205 213 165 130 134 121 109 96 83 78 72 63 54 47 43 43 41 40 35 36 32 35 37 37 34 34 38 39 37 38
315 304 293 287 281 277 274 265 262 260 259 272 267 262 255 248 232 213 217 218 221 234 159 146 136 122 106 92 84 71 63 53 49 46 41 36 33 30 28 31 35 36 35 33 34 39 40 36 35
321 301 292 288 285 283 281 266 262 261 258 261 266 268 269 232 221 217 221 229 228 235 221 169 151 139 122 104 89 76 68 60 53 46 44 37 31 28 26 31 35 37 34 34 35 37 39 39 38
302 299 298 297 291 288 279 270 260 256 255 254 260 276 262 224 219 216 220 224 221 219 227 202 165 152 143 139 105 84 63 62 46 44 43 36 30 29 32 34 39 36 35 35 36 35 35 35 37
304 294 299 300 297 293 283 273 264 254 251 248 256 265 255 233 228 226 227 228 226 219 224 212 186 167 159 149 130 101 76 61 49 50 47 38 35 37 38 39 39 37 34 35 34 31 29 32 33
298 298 294 303 296 292 284 279 267 255 251 253 255 265 249 235 231 231 227 227 224 219 223 220 204 180 177 159 146 122 96 69 57 56 55 48 46 45 43 41 38 37 33 34 32 31 28 31 34
294 296 299 296 293 292 290 278 269 260 252 253 254 262 244 237 234 238 232 228 226 223 222 217 206 197 181 166 174 166 115 83 64 67 60 57 55 54 48 42 38 35 31 30 30 29 28 29 35
308 297 294 293 294 295 285 279 270 260 251 249 250 247 245 238 234 235 233 225 225 226 222 217 206 198 183 183 198 205 150 102 83 75 67 63 64 60 52 43 37 33 29 27 26 24 25 27 32
290 293 296 295 293 291 293 275 267 260 252 247 247 241 242 240 237 232 232 227 223 228 222 218 210 203 190 191 198 183 134 115 98 81 71 71 67 60 54 45 36 31 27 25 21 18 19 20 28
297 293 291 295 287 291 282 281 274 260 252 248 244 245 238 241 239 236 235 230 228 226 223 222 219 210 200 198 196 182 157 126 108 92 77 71 67 61 52 43 35 29 23 19 15 11 10 12 17
291 288 284 291 287 286 276 285 285 261 251 249 242 242 239 239 238 236 234 230 228 226 223 222 220 209 206 202 201 196 183 146 125 105 89 77 66 55 50 40 30 25 22 17 17 10 9 5 10
280 287 289 284 294 279 280 277 276 268 251 247 244 241 240 237 239 234 233 232 230 228 226 222 221 215 210 207 204 214 215 201 155 126 105 88 68 54 44 33 25 21 17 13 13 12 7 4 4
284 283 284 288 289 284 279 278 256 263 254 250 244 241 240 236 237 233 232 231 231 230 227 223 218 216 209 204 200 212 211 207 195 174 125 98 72 48 36 25 18 14 11 9 8 11 5 0 360
269 276 282 285 283 283 284 280 271 260 252 256 248 241 240 238 236 235 232 231 231 229 227 224 221 214 214 211 215 218 209 234 217 205 197 113 71 35 19 17 12 10 10 5 3 4 5 3 359
272 275 281 280 289 283 284 281 254 259 255 255 254 246 239 237 232 233 232 231 230 230 227 223 221 215 215 214 211 215 228 228 244 234 229 248 17 351 3 2 5 4 5 5 3 2 2 358 358
269 273 274 277 278 280 283 280 256 259 253 254 251 247 241 234 234 232 235 232 230 229 229 227 223 217 217 207 209 199 219 219 239 226 236 233 277 333 351 358 360 2 2 2 2 1 360 358 354
271 275 273 274 274 278 273 281 279 264 254 251 241 246 241 236 231 231 230 231 231 229 226 226 224 223 218 213 211 210 221 236 225 226 222 237 270 310 338 349 355 356 356 358 358 357 356 354 353
271 272 278 275 273 269 271 272 236 254 252 256 250 247 243 237 232 233 232 234 233 231 228 225 223 224 221 219 220 217 217 222 219 227 229 239 257 290 321 338 346 349 350 350 351 352 351 350 350
259 264 265 266 265 269 276 270 232 271 256 254 254 246 243 237 235 232 228 230 228 226 225 226 223 223 220 221 221 227 222 218 215 218 226 231 250 276 303 327 337 341 345 346 347 345 346 346 345
254 249 256 262 268 275 275 259 233 265 247 265 255 249 245 239 234 230 225 225 225 226 224 225 223 222 221 221 225 229 229 228 229 226 230 244 252 269 300 321 331 337 341 342 343 341 342 343 343
253 247 251 268 277 278 282 284 282 258 253 251 246 250 246 242 235 230 221 219 216 216 218 213 224 224 223 224 226 229 231 229 232 235 237 242 257 276 297 318 324 330 334 337 338 338 339 340 340
249 255 250 255 266 262 273 280 271 262 245 250 252 245 243 242 236 232 225 213 211 209 209 208 219 221 223 224 225 228 231 234 235 231 232 237 257 275 296 311 320 326 331 334 336 336 337 337 339
249 247 254 261 260 265 267 282 298 260 266 266 263 252 245 238 235 233 227 219 210 208 216 204 209 219 221 222 223 226 230 234 233 230 232 242 258 277 297 311 319 324 329 332 333 334 335 336 336
251 247 243 253 262 261 264 262 284 297 291 284 276 262 247 236 232 230 226 211 206 205 203 196 198 203 209 208 217 224 226 228 226 225 232 243 261 285 300 312 319 324 327 330 332 332 333 334 334